Wind_Speed
42 42 42 41 40 40 41 41 42 41 41 41 40 40 40 40 39 38 37 36 36 35 35 34 34 34 33 33 33 33 32 31 31 31 31 32 32 32 31 30 29 29 28 27 27 26 25 23 22 21 20 19 18 17 16 14 13 13 14 15 15 16 16 14 11 10 12 12 10 9 10 10 10 10 10 11 10 9 9 9 9 10 13 15 16
43 43 41 40 41 41 40 40 41 41 41 41 40 40 39 39 38 37 36 36 36 36 36 35 35 34 34 34 34 34 34 33 33 33 33 33 33 33 33 32 32 31 30 30 29 28 27 26 24 22 21 20 19 18 17 16 16 16 16 16 17 17 17 16 14 11 11 12 11 10 9 10 11 11 10 10 8 8 8 8 10 12 14 16 18
43 42 40 41 41 41 40 40 41 41 41 41 41 41 39 38 37 36 36 36 36 36 37 36 36 35 35 35 35 35 35 35 35 35 35 34 34 34 34 34 34 33 32 32 30 29 28 27 26 24 22 21 20 20 18 18 18 18 18 18 18 18 18 18 16 14 13 12 11 11 10 10 10 9 9 8 7 7 9 10 12 14 16 17 18
41 41 41 40 39 39 40 40 40 41 42 42 41 41 39 37 36 36 35 35 35 36 36 36 36 36 36 36 36 35 36 36 37 37 36 35 35 35 35 35 35 34 34 33 31 30 30 29 28 26 24 23 23 22 21 20 20 19 19 20 20 20 19 19 18 17 16 13 12 12 12 11 9 9 9 9 9 9 10 11 13 16 18 19 19
39 40 41 39 38 39 40 39 40 41 42 41 41 39 38 36 35 35 35 35 35 35 35 36 36 37 37 37 37 37 37 37 38 38 37 36 35 35 35 35 35 35 34 33 32 31 31 30 29 27 26 25 25 25 24 22 21 20 20 21 21 21 20 20 20 19 18 17 16 15 14 13 12 11 12 12 11 11 12 13 15 18 20 20 20
39 39 39 38 39 40 40 41 41 41 41 41 39 38 37 37 36 35 35 35 35 35 35 36 37 38 39 38 38 38 38 38 38 38 38 37 36 36 35 35 34 34 34 33 33 32 32 31 30 28 28 28 27 27 26 25 23 22 22 22 22 22 22 21 21 21 21 21 20 18 17 16 15 14 14 13 13 12 13 14 17 19 20 20 21
39 39 39 39 40 41 42 43 43 42 41 41 40 39 38 38 38 36 36 35 36 36 36 37 38 39 40 40 40 39 38 38 38 38 38 37 36 36 35 34 33 33 34 34 33 33 32 32 31 30 30 30 30 29 28 27 26 25 25 23 22 23 23 22 22 22 22 21 20 19 19 19 18 17 15 14 13 13 12 13 17 20 20 19 20
39 39 38 39 40 42 44 44 43 42 41 41 41 40 40 40 39 37 36 36 37 38 38 38 38 39 40 41 41 39 38 38 39 38 38 38 37 35 34 33 33 33 34 34 33 33 33 32 32 31 31 32 32 31 30 30 28 28 27 25 24 24 24 23 23 23 23 22 20 19 18 18 18 16 15 13 13 12 10 10 15 19 20 19 20
40 40 39 40 43 45 44 42 41 41 40 40 40 40 40 39 38 37 37 38 38 38 38 38 38 39 40 40 40 39 39 39 40 40 39 38 37 35 34 33 33 34 34 33 33 33 33 33 33 32 32 31 31 31 31 31 30 30 28 27 26 26 25 24 23 24 23 22 21 19 17 17 18 17 15 14 12 10 9 10 13 16 17 19 20
39 39 39 42 44 43 41 39 39 39 39 40 40 40 39 38 37 38 39 39 38 38 38 38 39 41 40 39 38 38 39 41 42 41 41 40 38 36 34 34 34 34 33 33 33 34 34 34 33 32 31 30 30 30 31 32 31 31 30 29 28 27 27 25 25 24 23 22 22 20 17 18 20 19 17 15 11 9 9 10 12 14 15 16 18
39 39 42 43 42 40 39 38 38 39 40 40 40 39 39 38 38 39 39 39 38 37 38 39 41 41 40 39 39 39 40 42 42 42 41 40 38 37 35 35 35 34 34 33 34 34 34 34 34 32 31 30 30 31 31 31 31 30 30 30 29 28 28 27 26 25 24 22 22 21 20 20 22 20 17 15 13 12 12 11 12 13 13 12 13
39 41 42 41 39 39 39 38 38 39 40 40 39 39 39 39 39 39 39 39 38 38 40 41 42 41 39 39 39 40 41 43 42 42 41 41 39 38 36 35 35 35 35 35 34 34 34 34 34 33 32 31 31 30 29 30 30 29 29 29 29 29 28 28 27 26 25 23 23 23 23 22 21 20 17 14 13 13 12 12 12 12 12 12 13
39 39 39 38 38 40 39 38 39 40 40 40 39 38 39 39 40 39 39 39 39 40 41 42 41 40 39 39 40 40 41 42 42 42 41 40 40 39 37 36 36 35 36 36 35 35 34 33 32 32 32 31 30 29 28 28 28 27 27 27 28 29 29 29 29 28 27 27 26 27 27 25 23 20 15 11 10 12 12 13 13 12 13 14 15
38 38 37 38 39 39 38 39 40 40 39 39 38 38 39 40 40 40 39 39 39 40 41 41 41 41 41 40 39 39 41 42 42 41 41 40 40 39 38 37 36 36 36 36 36 35 35 34 32 31 31 30 28 27 27 27 26 26 26 26 27 28 29 29 29 29 29 30 29 29 27 24 20 15 10 8 9 12 13 14 14 13 14 15 14
37 37 36 37 38 37 38 39 39 38 38 38 38 39 39 40 40 39 38 39 40 41 41 40 41 41 41 40 38 38 41 42 41 40 40 40 39 39 38 37 36 36 36 37 36 36 35 33 32 30 29 28 27 26 25 25 25 25 25 26 26 27 28 29 29 29 29 30 30 27 22 16 12 10 10 9 10 12 13 14 13 13 13 13 13
35 35 35 36 37 38 38 38 37 36 36 37 37 38 39 40 40 39 38 39 39 39 39 39 40 40 40 39 38 39 40 40 40 40 40 39 38 38 38 37 36 36 37 37 36 35 34 32 31 30 29 27 25 24 22 22 23 24 25 25 25 26 26 27 27 26 26 26 27 26 22 17 14 15 13 11 11 12 12 12 11 10 10 11 12
33 34 35 36 38 39 39 38 36 36 36 37 38 39 40 40 39 39 38 37 37 38 38 38 39 39 39 39 39 39 39 39 40 40 39 39 38 38 38 38 37 37 38 37 35 34 33 32 31 30 27 25 24 22 20 20 21 23 24 25 24 24 24 24 24 23 22 21 19 19 19 15 12 12 11 10 11 10 9 10 10 10 10 10 9
33 34 35 37 39 40 40 39 38 37 38 39 40 40 40 40 40 40 39 37 38 39 38 37 38 38 39 40 41 40 38 39 40 40 39 39 38 38 39 38 37 37 36 34 33 33 32 32 31 29 27 24 22 20 19 19 21 23 24 23 22 22 22 22 20 17 17 17 15 14 13 11 8 8 9 9 9 9 9 10 10 11 12 11 8
35 36 38 39 39 38 38 38 38 38 39 40 40 40 39 39 38 38 38 38 38 37 36 36 36 37 38 40 41 40 38 38 39 40 39 39 39 39 39 37 35 35 33 31 30 31 32 30 29 27 25 23 20 19 18 19 21 22 22 22 21 21 21 20 17 14 13 14 12 11 11 9 7 7 8 8 8 8 9 10 10 10 10 9 7
34 36 38 36 36 36 37 38 40 40 40 40 39 38 37 36 35 36 37 36 35 34 35 36 35 36 37 38 38 39 39 38 38 39 39 39 39 39 38 36 35 34 31 30 29 29 29 28 27 25 23 20 19 18 18 18 19 20 20 20 20 19 19 16 14 11 11 11 11 11 10 9 8 8 8 8 8 8 8 8 7 7 7 6 7
32 34 33 32 33 36 37 38 40 41 40 38 36 36 36 36 36 36 35 33 32 32 34 34 34 34 35 35 36 38 39 39 38 39 39 39 39 39 38 37 36 34 31 30 30 29 28 27 26 24 21 19 18 18 17 17 17 18 17 17 17 16 14 12 10 10 11 11 11 11 10 9 9 8 8 8 7 7 6 6 6 6 6 6 7
32 33 32 33 35 36 37 38 39 37 36 36 36 36 36 36 37 36 34 32 32 32 32 32 32 33 33 34 36 37 37 38 39 39 39 38 38 39 39 38 37 34 31 29 29 29 28 27 25 23 21 19 18 17 16 15 16 16 15 15 16 14 11 10 12 13 12 11 11 12 11 9 8 7 7 7 6 6 6 6 5 6 7 8 8
28 28 31 33 34 35 37 38 37 36 36 37 37 35 35 35 36 36 35 34 33 32 32 32 31 30 30 32 34 35 35 37 39 39 39 38 38 39 39 39 37 34 32 30 30 29 28 26 24 21 19 18 18 16 15 15 16 16 15 15 14 11 11 13 14 12 11 11 11 11 9 8 7 7 7 7 7 6 6 5 5 6 8 9 10
22 23 26 28 29 30 32 33 34 34 35 36 36 35 35 36 35 35 36 35 33 32 32 32 30 29 29 29 30 31 32 34 37 38 39 39 39 39 39 38 36 34 32 31 30 28 26 24 22 20 18 18 17 16 16 16 16 16 15 14 13 12 14 14 12 11 11 12 11 9 8 8 9 10 10 9 8 6 5 5 6 8 9 11 13
19 22 24 25 26 27 27 29 32 34 35 37 37 37 37 36 35 36 36 35 33 32 32 32 31 30 29 28 28 29 31 33 36 37 38 39 39 38 38 39 36 33 32 30 27 25 23 21 20 19 19 19 18 17 18 17 17 16 14 13 14 16 15 13 12 12 13 12 10 9 9 11 12 12 11 9 7 6 5 6 8 9 11 13 15
19 22 24 26 28 28 28 30 33 36 38 39 39 39 38 36 35 34 34 34 34 34 33 33 33 31 30 28 28 30 32 35 37 38 38 39 39 38 38 38 35 31 29 27 24 22 20 19 20 20 20 20 19 19 19 18 17 16 14 14 16 17 15 13 14 14 14 12 11 11 12 12 12 11 10 8 6 6 7 9 11 11 12 13 15
19 21 23 26 27 28 30 31 32 33 34 35 35 34 34 34 32 31 31 32 32 32 32 32 31 30 29 28 29 31 34 35 37 39 39 39 39 38 37 34 31 27 25 24 23 21 20 20 21 22 21 20 19 19 18 17 17 16 15 16 17 16 14 14 14 14 13 11 11 12 13 13 12 10 8 8 7 7 9 10 12 12 12 13 13
14 16 18 20 22 25 28 29 28 29 30 31 32 31 31 33 33 33 36 37 34 33 33 32 32 33 32 31 30 29 30 33 37 40 41 39 37 36 35 32 30 28 27 26 24 23 23 23 24 23 23 22 20 19 18 17 17 16 17 18 17 16 15 15 15 14 13 11 12 13 13 13 11 9 8 9 9 9 9 10 11 12 12 12 11
5 8 9 11 14 17 20 22 23 24 26 29 32 33 35 37 37 39 44 47 46 43 40 37 37 36 34 33 32 28 26 30 37 41 41 41 40 41 40 37 34 32 30 28 27 27 26 26 26 25 24 24 22 20 19 18 17 17 19 19 17 17 17 17 17 16 14 13 14 14 14 12 10 9 9 10 10 9 9 10 10 11 11 10 10
2 1 1 3 5 8 11 13 15 16 18 21 24 28 32 37 40 41 42 45 50 52 48 43 41 37 32 34 38 38 32 32 37 41 42 42 43 44 43 40 37 34 31 30 30 30 30 29 28 27 27 25 23 21 20 19 19 20 20 19 18 19 19 19 18 16 14 14 15 15 14 12 11 9 10 11 10 9 9 9 10 11 10 9 9
5 4 3 2 1 1 4 5 6 9 11 12 14 18 22 27 31 30 27 29 36 44 45 41 40 41 41 41 42 40 38 38 40 41 42 43 41 40 39 39 37 35 33 32 32 32 32 30 27 27 27 25 23 23 22 21 21 21 21 21 20 20 20 19 18 16 14 15 15 15 15 13 12 11 11 10 9 9 9 10 10 10 9 7 8
6 6 6 4 4 3 2 1 0 1 1 2 3 4 7 10 13 18 23 25 27 33 39 39 40 46 51 52 49 43 42 45 46 43 40 40 39 38 38 39 37 36 35 34 32 31 31 30 28 26 25 23 22 22 22 21 21 21 22 22 21 21 20 19 17 16 16 16 17 17 16 14 12 11 9 9 9 10 11 10 10 9 8 7 8
7 7 6 6 5 5 4 4 4 4 5 7 9 11 13 14 14 17 24 28 27 28 38 46 49 52 54 53 51 48 47 49 50 47 42 38 37 38 39 39 38 37 36 34 32 30 30 30 28 27 26 24 22 22 22 21 21 22 23 22 21 19 18 17 16 16 17 18 17 16 15 13 11 10 9 10 11 11 11 10 9 8 7 8 9
9 9 8 8 9 9 9 8 9 9 9 10 11 10 11 14 14 11 15 19 18 21 32 41 49 57 60 53 46 46 49 50 50 49 45 39 37 38 39 39 38 35 33 33 33 31 30 29 28 27 25 24 23 22 21 21 22 22 22 20 18 16 15 15 16 17 17 17 16 14 13 11 11 10 10 11 11 11 10 9 9 8 8 8 9
9 9 10 10 12 14 13 12 12 11 11 11 9 7 9 14 15 9 6 11 15 20 26 29 34 43 54 57 53 51 51 51 49 47 45 42 39 39 39 39 36 31 29 31 32 32 30 28 27 26 25 24 23 22 21 21 22 22 20 18 17 15 15 15 16 16 15 14 13 12 11 11 11 10 11 11 11 11 10 10 9 8 9 9 9
8 8 8 8 10 12 12 13 12 11 11 11 9 9 11 12 12 11 6 7 15 20 24 29 29 29 37 49 56 55 51 49 46 44 43 42 41 40 40 38 32 27 27 29 30 30 29 27 26 25 25 24 23 22 22 22 22 20 18 17 15 14 14 14 14 14 13 12 11 11 10 10 10 10 11 11 11 11 11 10 9 9 10 9 9
8 8 7 7 7 8 9 11 11 10 10 10 11 13 14 12 11 13 13 12 15 13 4 22 37 36 32 37 46 50 47 44 41 40 39 39 38 36 37 35 31 28 28 28 29 28 27 25 24 25 24 24 23 22 23 22 20 18 16 15 14 13 12 13 13 13 13 12 11 10 9 9 10 11 12 12 11 11 11 11 10 11 11 10 9
10 9 8 7 7 8 10 12 11 10 10 12 14 14 11 11 15 20 21 26 32 30 18 19 37 41 34 33 40 46 46 44 42 41 39 37 35 32 32 31 30 30 30 30 29 27 25 24 24 25 25 25 24 23 22 20 19 18 16 15 14 13 12 13 14 13 12 10 9 8 9 10 11 13 13 13 13 13 13 12 12 12 11 10 9
13 12 11 10 11 11 11 12 13 12 11 12 13 11 7 8 17 22 22 25 29 27 22 26 34 36 35 36 38 41 42 42 43 42 38 34 31 30 30 30 28 28 29 29 27 25 23 24 25 25 25 25 24 23 22 21 20 18 17 16 15 14 14 15 14 12 10 8 8 9 10 12 13 15 15 15 15 15 14 13 13 13 12 11 10
14 14 13 13 13 13 12 12 13 13 13 12 12 10 7 9 15 19 19 20 23 26 28 30 30 30 31 32 33 35 37 39 40 39 35 30 28 29 30 29 29 28 28 28 26 24 23 25 26 26 26 26 25 23 22 21 20 19 17 16 16 16 16 15 13 11 9 8 9 11 12 14 15 17 17 17 17 16 15 14 14 14 13 12 10
11 12 13 13 13 13 13 14 14 13 12 11 11 12 12 12 14 17 17 17 19 24 28 30 29 27 25 24 27 31 34 36 37 35 32 29 29 30 30 30 30 30 29 28 27 25 24 26 27 28 27 26 25 24 23 22 20 19 18 17 17 16 15 14 12 10 9 9 10 12 13 15 17 18 18 18 18 16 15 14 14 14 14 12 10
9 9 10 10 11 12 13 14 13 11 10 9 10 14 16 16 16 17 17 17 19 22 24 25 25 25 23 22 24 26 29 31 32 30 28 27 28 28 28 28 28 27 27 27 27 26 26 27 29 29 28 27 26 25 24 22 20 19 18 18 17 16 15 13 11 9 8 10 12 14 15 16 18 18 18 18 18 17 15 15 15 15 14 12 10
10 9 9 9 9 10 11 11 10 10 10 9 11 14 16 16 17 17 17 17 19 22 23 23 23 23 22 20 21 24 27 28 29 28 26 25 26 26 25 25 24 23 22 24 25 25 27 28 30 29 28 27 26 25 23 22 20 19 19 18 17 16 14 12 10 9 9 12 14 15 16 17 18 18 18 17 17 16 15 15 15 15 15 13 10
13 12 11 11 11 11 10 10 10 10 9 10 12 14 14 14 14 16 17 16 17 19 22 23 24 23 21 18 18 21 24 25 25 25 25 25 24 23 22 21 20 19 19 20 22 24 27 28 29 29 28 26 25 24 22 20 19 18 18 17 17 15 13 11 9 9 10 13 15 16 16 16 17 17 17 17 17 16 15 15 16 16 15 13 9
15 13 12 12 12 11 11 10 10 9 9 10 11 12 12 12 12 13 14 15 16 17 19 21 22 22 20 17 17 19 21 21 21 22 22 22 22 20 19 18 17 16 17 18 20 24 27 28 28 29 28 27 25 24 21 19 18 18 16 15 15 13 11 9 8 8 10 13 15 16 16 16 16 17 17 17 16 15 16 17 17 17 15 12 9
14 13 12 11 11 11 11 11 10 9 9 10 11 11 11 11 11 11 11 12 14 15 17 19 19 19 17 16 16 16 16 17 18 18 18 18 18 18 17 16 16 15 15 16 19 24 27 28 28 28 27 26 26 24 21 20 19 18 16 14 12 10 8 7 8 8 11 13 14 15 16 16 16 16 16 15 15 15 17 18 18 16 14 12 8
11 11 10 9 9 9 8 7 7 7 7 9 11 11 10 10 10 10 10 11 13 15 16 17 18 18 17 16 15 14 13 14 15 15 15 15 15 16 16 16 16 16 16 16 19 23 27 28 27 26 25 25 25 23 21 21 21 19 17 15 12 10 8 8 9 10 11 12 13 14 15 15 14 14 13 13 15 16 17 18 17 15 13 10 8
10 10 9 8 8 9 7 5 5 6 7 7 9 11 12 10 9 8 7 8 10 14 17 17 17 18 18 17 15 14 13 12 12 13 14 14 15 16 17 17 17 18 18 17 18 21 24 26 25 24 24 24 24 23 23 22 21 19 16 15 13 11 10 9 10 10 10 11 11 11 12 12 11 11 11 13 15 17 17 17 16 14 12 10 8
12 11 10 9 9 9 8 6 5 6 7 6 7 9 11 10 8 7 5 3 4 9 14 16 16 17 18 18 17 16 14 13 12 13 14 14 15 15 17 18 19 20 19 18 17 17 18 20 20 21 22 23 24 24 24 23 21 19 17 15 13 12 10 10 9 9 9 9 8 9 10 10 10 11 12 14 15 16 16 16 15 13 11 9 8
16 15 13 12 11 9 8 6 5 5 4 4 5 5 7 9 9 9 9 8 7 10 13 15 15 15 17 18 18 17 15 14 14 14 15 15 15 15 16 18 19 19 19 18 17 15 14 14 16 17 20 23 25 25 24 23 22 19 16 15 13 12 11 9 8 7 6 5 5 6 8 10 11 13 14 15 15 16 16 16 14 12 11 9 8
17 16 15 14 13 11 9 7 5 5 4 4 4 3 6 8 8 8 9 10 10 11 11 11 11 12 14 15 16 16 15 15 16 17 17 17 17 17 17 17 17 18 18 18 18 18 16 16 16 17 19 23 26 26 25 24 22 19 16 15 14 12 11 10 8 6 4 3 3 5 8 11 13 15 15 16 15 15 15 14 13 11 10 9 6
Wind_Direction
210 210 211 210 211 211 212 212 212 214 215 216 217 218 219 220 221 221 221 221 222 223 225 226 228 229 229 229 229 229 230 230 232 232 231 232 232 233 236 238 239 241 241 241 241 243 244 245 246 245 244 243 240 238 238 238 239 236 238 241 240 239 240 239 239 255 270 273 270 253 240 239 243 246 249 252 260 272 280 288 296 304 311 313 312
210 210 210 210 211 211 211 212 212 213 214 216 217 218 219 219 220 220 220 220 221 222 224 225 227 227 228 228 229 229 229 230 231 232 232 233 233 234 235 237 239 240 241 241 241 242 243 243 245 245 246 245 242 240 237 234 233 234 236 239 239 238 239 242 244 248 261 270 269 258 247 248 253 255 259 266 275 281 283 291 300 305 308 309 308
210 210 209 210 211 210 211 211 211 212 213 215 217 218 219 219 219 219 219 220 221 222 223 224 225 226 227 227 227 228 229 230 231 232 232 233 233 234 235 236 238 239 240 241 242 242 241 243 244 244 245 246 245 241 237 233 233 236 238 238 238 238 240 243 244 245 253 263 266 262 257 260 267 270 275 283 291 292 293 301 307 309 311 310 307
209 209 209 211 210 210 210 210 210 211 213 215 216 217 218 218 219 219 218 219 220 220 222 222 224 225 225 225 226 226 227 229 231 231 232 233 234 235 235 236 237 238 240 242 242 241 241 243 245 244 243 245 247 244 238 235 236 238 239 238 237 239 241 241 242 244 249 254 258 260 262 268 277 284 290 294 296 294 296 303 308 310 313 314 311
208 208 209 209 209 209 210 210 210 211 212 214 216 217 217 217 218 218 218 218 219 219 219 219 221 222 223 225 225 225 227 229 229 230 231 233 234 235 236 237 238 238 240 242 242 241 241 244 246 244 241 242 245 245 241 238 239 239 239 239 238 240 240 239 240 242 243 246 253 258 261 266 271 276 283 291 295 296 298 304 308 312 316 317 315
206 207 207 207 208 209 209 210 210 211 212 213 214 215 216 216 217 218 217 217 218 219 219 218 219 221 224 225 226 226 227 228 228 228 230 232 234 235 236 237 238 239 240 241 241 241 242 244 246 244 241 241 242 243 242 240 240 241 241 240 240 239 239 238 239 240 242 245 250 253 256 260 262 265 271 279 289 296 301 306 311 315 320 321 318
205 206 206 206 208 209 210 211 211 210 211 212 213 214 215 216 216 216 217 217 217 219 219 219 220 222 225 226 227 227 227 226 227 227 229 231 232 233 233 234 236 238 240 241 241 243 244 245 245 244 243 242 242 242 242 241 242 242 243 242 240 238 237 238 239 240 242 245 247 249 252 256 258 261 266 271 278 286 296 309 314 317 321 321 316
204 205 205 206 208 210 211 211 210 210 210 211 212 213 213 214 215 215 215 216 217 218 219 220 221 223 225 226 227 227 225 225 226 226 227 229 230 231 231 231 233 236 239 241 242 243 245 246 246 245 245 244 243 243 242 242 242 242 242 241 239 236 236 237 238 238 240 243 247 250 251 252 253 255 259 263 268 274 290 308 311 313 317 316 310
203 204 204 206 210 211 211 211 210 210 210 210 211 211 212 213 213 213 214 215 216 218 219 221 222 223 225 225 225 225 224 225 226 225 226 226 227 228 229 230 233 235 237 239 241 243 244 246 246 246 246 245 245 246 246 245 243 242 241 238 236 236 236 236 237 236 237 239 244 247 244 242 243 244 248 253 257 272 296 306 302 304 309 305 301
203 203 204 208 210 211 210 209 209 209 209 210 210 210 211 211 211 212 213 214 215 216 217 220 222 223 224 223 223 222 223 225 226 226 226 226 227 226 227 229 232 233 234 236 238 242 244 245 247 247 247 245 245 248 249 247 245 245 244 241 238 237 236 235 235 235 233 234 238 238 231 232 239 242 247 252 256 275 297 300 296 299 300 297 296
202 203 206 209 209 209 208 208 207 207 208 209 209 210 209 210 210 212 212 213 214 214 216 218 221 223 223 222 222 221 223 225 226 226 227 227 227 226 226 229 230 231 233 233 236 240 242 244 246 246 245 244 245 248 249 247 246 246 246 245 244 243 240 237 236 236 233 232 237 237 231 233 242 245 246 253 262 279 293 293 289 290 289 286 287
202 204 207 207 206 206 207 206 206 207 208 208 208 208 208 209 210 211 211 212 212 212 215 218 220 221 222 222 222 222 224 226 226 226 226 226 226 226 226 228 229 230 232 233 236 239 240 243 244 244 245 245 246 247 247 246 246 246 246 246 247 247 246 245 243 241 239 237 238 238 235 236 241 243 243 251 266 279 287 285 281 280 278 272 270
204 206 207 205 205 206 205 204 205 206 206 206 207 207 207 208 209 210 210 211 211 212 215 217 219 220 220 221 222 222 225 227 226 226 225 225 226 225 225 226 228 229 232 234 236 237 238 240 241 242 245 245 244 245 246 245 246 246 246 246 247 248 248 250 250 249 250 248 243 240 240 238 237 238 239 250 276 284 279 277 279 278 274 269 271
203 206 206 205 205 205 204 204 205 206 205 205 205 205 207 208 209 210 210 210 210 213 215 216 218 219 220 221 222 223 225 227 226 225 224 225 225 224 224 225 227 229 232 234 236 237 238 238 238 240 242 243 241 242 243 243 243 243 243 243 245 247 247 248 249 249 252 252 248 247 246 240 235 238 243 256 278 282 276 276 280 277 272 271 276
203 204 204 204 205 204 203 205 205 205 204 203 204 205 207 209 209 209 210 210 211 213 215 216 217 218 220 220 221 223 225 226 226 224 223 224 224 223 222 223 225 228 232 234 236 237 237 237 237 239 241 242 242 242 243 242 241 241 242 242 243 245 246 247 249 250 252 252 250 246 238 232 237 252 263 264 263 265 267 271 272 270 271 276 283
202 203 202 203 204 203 204 204 204 204 203 202 204 205 207 209 209 209 210 211 212 214 215 217 218 218 219 219 220 223 225 226 225 224 223 223 222 220 220 221 223 226 230 233 234 235 235 235 236 238 239 241 243 244 242 241 240 239 241 243 244 244 245 247 248 248 248 248 246 240 232 235 248 254 256 258 256 258 260 260 262 263 268 275 279
202 201 202 203 203 203 204 203 203 202 201 202 204 206 208 209 209 209 210 211 212 214 216 217 219 219 219 219 220 222 224 224 224 223 222 221 218 216 218 219 221 224 229 231 231 232 233 235 236 237 237 240 243 242 238 236 235 236 238 240 241 241 242 245 248 248 244 242 244 243 238 236 238 238 244 253 256 256 250 248 260 266 264 265 268
202 201 203 204 204 203 203 202 202 202 202 203 205 206 207 208 209 209 209 210 212 214 215 217 219 220 219 219 220 221 222 223 223 222 220 219 216 215 216 217 218 222 226 228 228 230 233 235 236 235 236 240 241 238 233 229 228 232 236 235 234 236 238 239 241 244 241 238 241 244 236 224 217 226 240 247 248 250 250 257 270 268 260 257 258
201 201 204 206 205 204 202 202 203 203 204 206 206 207 208 208 209 210 211 212 213 214 215 217 219 220 221 222 222 221 221 222 222 220 218 218 216 215 215 214 215 219 222 223 225 228 231 233 234 234 236 238 236 230 226 224 226 231 233 229 228 234 238 236 235 236 235 234 235 232 223 214 215 226 234 239 245 257 266 270 269 260 253 254 261
203 204 206 205 204 204 203 203 205 205 206 207 207 207 208 208 209 210 212 214 215 215 215 217 219 221 222 223 223 222 221 222 221 219 217 217 215 214 212 211 213 217 217 218 220 224 226 228 229 231 233 230 225 223 223 223 225 229 229 226 227 233 237 239 239 234 224 217 213 214 217 216 218 222 230 243 256 264 265 258 249 245 248 260 274
205 207 207 204 204 205 205 206 207 208 208 207 207 207 208 207 208 210 212 214 214 215 216 217 219 222 223 223 223 223 222 221 219 217 216 216 216 213 212 213 215 215 214 214 217 218 220 221 222 224 225 220 217 218 219 220 221 225 226 226 227 234 239 234 217 202 196 195 199 206 211 212 216 226 240 252 254 248 235 220 220 237 256 273 282
205 205 205 204 205 205 206 208 209 209 208 207 206 207 208 207 207 208 209 211 213 216 217 217 218 222 223 223 224 223 222 220 219 216 215 216 216 214 214 217 218 215 211 211 213 215 217 218 219 219 217 213 213 214 212 210 213 217 220 221 226 235 231 203 186 184 190 196 200 204 207 213 225 237 240 232 216 205 200 203 220 249 271 283 287
207 207 206 206 206 206 206 208 207 206 207 207 206 207 206 206 207 207 206 207 209 213 216 217 218 220 221 222 223 223 221 219 218 217 215 216 217 216 217 219 219 215 211 210 212 213 214 216 216 214 211 208 207 204 199 200 205 208 211 219 227 222 197 184 184 190 196 199 201 206 215 226 229 218 204 194 190 194 204 217 242 269 283 288 292
211 212 211 210 210 210 209 209 207 206 206 206 207 207 206 205 205 205 205 205 206 209 211 213 214 217 219 218 218 217 215 215 216 217 216 216 217 217 216 217 217 214 212 213 213 212 212 213 211 207 203 200 196 190 188 193 198 203 209 217 216 198 186 188 195 200 202 202 205 215 222 214 197 185 183 188 196 209 228 247 268 283 287 289 294
212 213 213 213 214 213 211 210 209 208 208 207 207 208 206 204 203 203 204 203 205 207 209 208 209 213 215 213 209 207 206 207 211 214 215 216 217 215 213 212 213 212 209 209 211 212 211 210 205 197 190 186 181 180 184 190 195 202 208 209 201 194 193 199 206 207 205 205 210 215 206 191 182 179 185 195 205 224 253 275 285 287 287 290 294
212 212 213 214 214 212 210 210 210 211 211 209 209 210 207 205 205 204 202 203 205 207 206 205 206 208 209 207 202 197 197 201 205 207 209 211 213 211 207 206 207 207 206 206 206 205 204 199 192 186 181 179 180 181 184 188 193 199 202 200 197 198 203 211 214 209 205 207 211 204 190 182 182 186 195 209 226 250 271 282 285 285 286 289 291
218 216 214 215 214 211 211 212 212 213 212 212 213 213 211 209 209 207 205 206 208 209 209 206 204 203 202 200 196 192 190 192 196 198 200 202 204 203 199 197 198 196 195 195 193 190 187 184 183 181 178 178 181 183 183 186 193 197 199 199 200 205 215 220 215 208 206 209 205 194 186 186 191 197 210 230 249 268 277 278 279 281 285 287 289
231 227 223 220 217 214 214 214 214 214 214 213 214 214 212 212 212 211 210 209 208 210 211 209 206 203 197 191 186 184 185 187 188 190 191 191 194 194 190 188 190 188 184 181 178 175 175 175 176 176 175 174 176 179 182 188 195 199 200 201 205 213 216 212 207 206 208 205 198 193 192 196 203 212 228 246 263 274 272 267 270 276 281 284 285
260 245 239 231 224 221 220 220 220 219 218 216 216 216 215 213 214 216 218 216 213 212 211 210 210 207 197 188 180 171 172 183 189 191 190 187 187 189 187 186 186 183 180 175 169 166 167 169 169 170 170 170 172 176 183 189 193 197 199 203 210 213 207 203 204 206 204 199 199 200 201 206 215 226 242 260 270 268 259 259 267 274 279 280 281
35 39 266 234 227 226 225 225 227 227 225 223 224 225 224 221 218 220 224 225 222 219 215 213 211 203 192 185 181 176 176 187 194 194 189 185 185 185 184 183 183 179 175 171 166 163 162 163 165 168 169 170 172 178 185 189 192 195 200 207 211 208 203 204 208 207 205 205 206 208 211 217 225 238 255 266 265 255 252 259 267 272 274 275 278
68 64 55 56 61 232 221 220 228 229 228 230 232 234 238 237 233 235 245 249 241 230 224 219 210 199 189 182 179 181 189 193 194 192 187 182 181 180 180 181 180 176 171 166 161 160 162 163 165 168 170 172 177 182 187 190 192 196 201 204 204 203 203 208 210 209 210 211 212 216 220 225 234 247 256 256 251 251 257 262 266 268 265 266 281
68 64 55 53 48 36 36 43 308 234 231 285 293 303 319 313 296 291 298 297 277 248 231 221 210 199 191 183 177 182 190 188 184 183 183 178 175 176 178 180 177 171 168 164 158 159 164 166 166 167 170 174 181 186 188 189 190 194 196 197 198 201 206 211 213 214 217 218 219 221 224 230 240 245 242 239 245 253 259 261 260 256 256 271 289
67 72 70 67 62 54 53 59 65 70 69 58 49 42 33 22 1 331 316 312 297 262 233 219 208 197 190 185 181 182 186 181 174 171 173 174 174 174 175 174 170 165 164 162 158 161 168 170 168 170 175 179 185 188 189 189 190 193 196 198 199 203 209 215 219 222 224 224 223 224 228 233 232 225 223 235 245 250 254 253 249 247 259 280 290
64 67 73 77 76 71 68 71 77 80 82 77 68 58 49 44 31 347 305 297 287 253 228 217 206 193 185 182 180 179 178 174 167 164 164 167 171 172 168 164 162 162 163 164 163 165 170 171 171 176 181 183 186 189 189 190 193 195 198 201 205 208 213 218 221 222 222 221 221 221 221 218 211 212 224 235 238 243 248 244 240 249 266 278 283
63 61 67 74 80 79 76 76 81 86 90 87 84 88 83 70 57 34 315 274 255 236 223 215 207 192 179 172 169 169 168 164 161 159 157 159 164 166 160 154 152 156 162 167 167 168 170 172 175 181 185 186 187 189 189 189 193 196 199 203 209 211 212 214 216 216 214 210 208 205 202 201 206 219 230 234 237 246 246 236 237 255 268 272 278
63 61 64 74 85 88 84 82 82 83 82 78 75 85 92 90 81 68 34 291 263 245 217 193 180 174 166 159 156 157 157 155 154 153 152 155 161 163 157 151 151 156 162 166 169 170 173 176 180 185 188 188 186 187 187 189 193 197 199 203 204 203 201 202 203 200 193 188 185 186 191 204 219 230 237 243 250 249 239 233 243 257 263 266 274
65 67 70 80 95 101 100 97 92 85 78 72 73 79 83 83 81 73 57 33 13 350 248 157 139 131 134 139 141 144 146 147 148 148 148 153 161 162 157 155 157 160 163 166 170 171 173 178 185 188 188 185 183 184 187 190 192 192 192 190 189 188 189 190 187 182 173 169 174 187 204 222 234 242 247 251 248 237 230 235 248 256 258 262 271
75 79 82 90 97 99 101 102 98 92 87 84 84 87 86 79 74 69 63 59 51 35 28 84 100 102 108 118 127 134 138 140 141 142 145 151 156 158 158 159 161 163 166 169 171 172 174 181 188 188 184 181 181 183 184 184 183 180 178 176 176 180 182 180 176 173 168 169 183 208 227 238 242 246 248 245 236 229 231 240 249 252 254 259 266
79 83 84 88 91 90 93 100 103 104 101 95 92 93 91 85 84 80 76 77 76 67 59 69 82 94 106 117 125 132 134 133 135 139 143 148 153 157 161 163 164 166 168 170 172 173 177 183 186 184 180 179 179 179 178 176 175 174 173 173 175 178 179 178 176 174 172 181 205 225 235 241 243 244 244 239 232 230 233 240 248 253 256 261 265
71 76 78 83 89 90 91 95 97 97 96 94 93 92 83 82 92 95 93 93 96 95 90 87 90 100 113 124 134 136 133 133 138 143 144 146 153 161 165 167 168 169 170 171 173 176 181 185 184 180 178 177 176 175 175 175 174 174 174 176 177 179 181 183 183 179 179 195 217 228 235 243 244 244 243 238 232 231 236 242 250 257 260 263 267
68 74 77 82 90 96 94 89 85 86 93 97 95 91 85 78 82 90 92 92 96 101 103 106 111 116 123 134 141 140 136 136 142 146 148 151 158 165 169 172 173 174 174 174 177 181 185 185 181 179 177 176 175 176 177 176 175 174 175 178 179 181 184 187 186 182 186 203 220 228 237 244 247 248 247 240 231 231 238 245 253 260 262 262 267
71 74 77 83 92 94 91 90 92 93 96 97 93 91 91 86 82 83 84 86 93 98 101 107 117 125 129 133 137 139 139 141 145 149 152 157 163 168 172 176 178 178 178 179 183 185 185 183 180 179 177 176 178 179 178 177 176 175 176 179 181 185 188 190 187 185 195 212 224 231 238 244 249 253 250 240 231 231 239 248 256 262 262 261 265
81 79 80 87 94 91 87 90 97 95 88 83 88 94 97 95 94 94 92 94 103 111 113 115 120 126 128 133 140 143 144 147 152 156 159 162 165 169 173 177 180 181 182 186 188 187 185 183 181 180 179 180 182 182 180 178 177 176 178 182 186 189 192 191 187 191 206 219 227 233 239 246 253 255 247 236 231 234 242 251 260 263 261 260 264
80 81 83 86 92 95 96 95 94 91 90 91 95 101 106 107 108 109 108 109 114 121 125 129 134 136 136 141 148 149 149 152 157 160 163 167 169 170 174 177 179 181 186 190 191 189 186 184 182 182 183 185 186 185 183 181 178 177 180 186 190 193 195 193 191 200 216 224 229 235 240 246 252 251 241 232 232 237 246 257 264 264 261 258 259
57 61 66 73 78 85 93 100 104 106 109 106 102 105 114 121 122 122 122 124 128 132 135 139 143 143 142 145 151 153 153 156 159 162 168 172 172 174 176 178 180 184 188 191 193 191 188 186 185 185 186 188 188 187 186 184 182 182 185 189 191 193 194 193 194 206 220 227 233 238 241 244 247 244 236 233 237 245 256 265 268 263 257 253 255
45 45 45 52 63 70 76 85 94 103 113 117 114 114 121 129 132 131 130 131 134 137 140 145 149 151 149 149 152 154 156 160 164 168 173 175 176 179 181 183 185 188 188 189 191 191 189 188 189 190 190 191 190 189 189 190 190 191 195 197 194 189 188 192 198 210 221 229 236 240 243 245 245 240 236 240 249 258 265 268 265 258 252 249 253
58 55 48 47 58 70 77 82 85 92 109 125 128 124 123 128 131 133 135 139 143 146 148 152 158 161 160 158 159 159 161 165 169 171 174 178 182 186 188 187 186 184 180 181 187 191 192 192 194 195 196 195 193 191 193 196 197 199 204 205 199 188 184 192 202 213 223 231 239 244 247 247 243 238 242 254 263 267 269 265 257 251 248 247 256
66 69 70 68 68 69 70 73 77 75 80 98 116 122 123 124 123 123 128 139 149 155 158 160 166 169 169 168 168 165 160 160 163 169 176 183 187 188 189 186 181 178 176 177 182 189 194 197 199 202 203 200 197 197 199 200 200 203 207 205 197 189 188 195 204 213 221 228 236 242 244 244 243 247 260 271 272 270 267 259 250 245 245 249 261
48 48 50 54 54 50 46 47 51 52 56 76 106 120 124 128 132 138 143 152 169 170 167 165 168 172 173 172 172 170 166 164 164 168 173 178 180 183 185 185 183 182 182 180 179 183 189 195 201 205 204 202 202 203 203 202 203 206 204 197 190 190 194 200 206 210 214 220 227 232 236 242 250 260 272 279 277 269 261 252 245 243 246 252 260
32 28 28 32 33 29 23 27 37 48 68 97 113 124 136 144 149 153 156 162 179 185 175 165 163 168 171 172 174 174 171 167 163 161 162 164 168 173 179 184 187 190 192 192 191 190 190 194 201 205 204 204 206 207 207 206 206 205 199 191 189 193 198 201 200 197 196 200 214 228 240 251 259 266 274 279 276 266 255 247 242 243 248 251 252
31 27 25 23 19 13 8 12 31 54 81 107 125 157 165 152 143 145 152 156 165 171 164 151 148 155 162 167 171 171 167 164 161 159 159 161 164 168 173 179 185 191 196 200 204 206 206 207 207 207 206 208 210 211 212 212 208 201 193 191 193 195 196 195 191 186 180 185 210 232 246 255 261 268 275 278 273 262 251 243 240 243 246 245 247
Height
739 742 744 748 751 754 756 759 762 765 768 770 772 773 776 778 781 784 786 789 791 794 797 799 802 804 806 808 810 812 814 815 817 818 819 821 822 824 826 827 829 829 831 832 833 834 835 836 838 839 841 842 844 845 846 847 848 848 849 850 850 851 851 852 852 851 851 852 852 853 853 853 853 853 853 854 854 855 855 855 856 856 856 856 855
733 737 740 744 746 749 753 756 759 762 764 766 768 770 773 775 778 781 784 786 788 790 793 796 799 801 803 805 806 808 810 812 814 814 816 817 819 821 823 825 826 827 828 829 830 832 833 834 835 837 838 840 841 843 844 845 846 846 847 848 848 849 850 850 850 850 850 851 851 852 852 852 851 852 852 852 853 853 853 853 853 853 853 853 853
728 733 737 739 742 746 749 752 755 758 760 762 764 767 769 772 776 778 781 783 785 787 790 792 795 797 800 801 803 805 807 808 810 811 812 814 816 818 820 821 823 824 825 826 828 830 831 832 833 835 837 838 839 840 842 843 843 844 845 845 846 847 848 848 849 849 849 849 850 850 850 850 850 850 851 851 851 851 850 851 851 851 851 850 850
725 729 732 735 739 743 745 748 751 753 755 758 760 763 767 770 773 775 778 781 783 785 787 789 792 794 796 798 799 801 802 804 805 807 808 810 812 814 816 818 819 821 822 824 825 827 828 829 831 833 835 836 837 838 839 840 841 841 842 843 844 845 845 846 847 847 848 848 848 848 848 848 849 850 850 850 850 849 849 848 848 848 848 848 847
721 724 728 732 735 738 740 743 746 748 750 753 757 761 764 767 770 773 775 778 780 782 784 785 788 790 792 793 795 797 798 800 801 803 805 807 809 811 813 815 816 818 820 821 823 825 826 827 828 830 832 833 833 835 836 837 838 838 839 840 841 842 843 844 844 845 845 846 846 846 846 847 847 848 848 848 848 848 847 847 847 846 846 845 845
716 719 723 727 730 732 735 738 740 742 746 750 754 758 761 764 766 769 772 775 777 779 780 782 783 785 787 789 790 792 794 796 797 799 801 803 805 808 809 812 814 815 817 818 820 821 823 824 825 827 829 829 830 831 833 834 835 835 836 837 838 839 840 841 842 842 843 843 843 844 844 844 844 845 845 846 846 845 845 845 845 845 845 844 843
711 714 718 722 724 727 729 731 734 738 742 745 749 753 756 759 762 764 768 770 773 775 776 778 779 781 782 784 786 787 789 792 793 795 797 799 801 804 806 808 810 812 814 815 817 818 819 821 822 824 825 826 827 828 829 830 831 832 833 834 835 836 837 838 839 840 840 840 841 841 842 842 842 842 843 844 844 843 843 844 843 843 843 842 841
706 709 713 716 718 720 722 725 729 733 737 741 744 747 750 754 757 760 763 765 768 770 772 774 775 777 778 779 781 783 785 787 789 791 793 795 797 800 802 805 807 808 810 811 813 815 816 817 818 820 821 822 823 825 826 827 828 829 830 831 832 833 833 835 836 836 837 837 838 838 839 840 840 840 841 841 842 841 842 842 842 840 840 839 839
700 703 707 709 710 713 717 722 726 730 734 737 740 743 746 749 752 756 758 760 762 765 767 770 771 772 773 774 777 779 781 782 784 786 788 791 793 796 798 801 803 804 806 808 810 811 812 813 814 816 817 818 820 822 823 824 825 825 827 828 829 830 831 832 833 833 834 835 835 836 837 837 837 838 839 839 840 840 840 840 839 839 838 837 837
694 698 700 701 704 709 714 718 722 726 729 732 735 738 742 745 748 751 752 755 757 760 763 765 766 767 768 770 772 774 775 777 778 781 784 786 789 792 794 796 798 800 802 804 806 807 808 809 810 812 813 815 817 818 819 821 822 823 824 825 826 827 828 829 829 830 831 831 832 833 834 834 834 835 836 837 837 837 837 837 836 836 837 836 835
688 691 693 695 700 706 710 714 717 721 724 727 731 734 738 741 743 745 747 750 752 755 758 759 760 761 763 765 767 769 770 771 773 776 779 782 785 787 789 792 794 796 798 799 801 802 804 805 806 808 810 811 813 814 815 817 818 820 821 822 824 824 825 826 826 827 828 829 829 831 831 831 832 833 834 834 835 835 834 834 834 834 834 834 833
683 685 686 691 697 701 704 709 712 715 718 722 726 730 733 736 737 740 742 745 747 750 751 752 754 756 759 761 762 763 765 767 769 772 775 778 781 783 785 787 789 791 793 795 797 798 800 801 802 804 806 807 809 810 812 813 815 816 818 819 820 821 822 823 823 824 825 826 827 827 827 828 829 830 831 832 832 832 832 832 832 832 833 833 832
678 680 683 689 692 695 700 703 706 710 713 717 721 725 728 730 732 734 737 739 742 743 744 746 749 752 754 755 757 759 760 762 764 767 770 773 776 779 781 783 785 787 789 790 792 794 795 797 798 800 802 803 805 807 808 810 811 813 815 816 817 818 819 820 820 821 822 823 823 823 823 824 825 826 828 829 830 831 831 831 831 831 831 831 830
673 676 680 684 687 691 695 698 700 704 708 712 717 719 722 724 726 729 732 734 737 737 739 742 744 746 748 750 752 754 756 757 760 762 766 769 772 775 777 779 781 783 784 786 788 789 791 793 794 796 798 800 802 804 805 807 809 810 812 813 814 815 816 817 818 819 820 820 820 820 821 822 823 825 826 827 828 829 830 829 829 829 829 829 828
667 670 675 679 683 687 690 693 696 700 704 708 711 714 716 719 721 724 726 728 730 732 735 737 739 741 743 745 748 750 751 753 755 758 761 764 768 771 773 775 777 778 780 781 783 785 786 788 790 792 794 796 799 801 803 804 806 808 809 809 810 811 812 813 815 816 817 817 817 818 819 821 823 824 825 825 826 827 827 827 827 828 828 827 827
662 666 670 674 678 682 685 689 693 696 701 704 706 709 711 713 716 719 721 723 725 728 731 732 734 736 739 741 743 744 746 748 751 753 757 760 763 767 769 771 772 774 775 777 778 781 783 785 787 789 791 793 795 798 800 801 803 805 806 807 807 808 809 810 811 813 814 815 815 815 816 818 821 822 823 824 824 824 825 825 826 826 826 826 825
657 661 664 668 672 676 680 684 688 692 696 698 700 703 705 708 711 714 716 719 721 723 725 727 730 732 734 736 738 739 741 743 746 748 752 756 759 762 764 766 768 769 771 772 775 777 779 781 783 785 787 789 792 794 796 798 800 801 803 804 805 806 807 807 808 810 811 812 814 815 816 817 818 820 821 822 822 822 822 823 824 825 825 824 824
653 657 660 663 666 670 674 679 683 687 689 691 693 696 699 702 705 708 711 714 716 718 720 723 725 727 729 730 731 734 736 738 740 744 747 751 754 757 759 761 764 765 767 769 772 774 776 777 779 782 784 786 788 791 793 795 796 798 800 801 803 803 804 805 806 807 809 810 812 814 815 815 816 817 818 819 820 820 820 821 822 823 823 822 822
647 651 655 658 662 666 671 675 679 682 684 685 688 691 694 698 701 705 707 709 710 713 716 719 721 722 724 726 727 730 732 733 736 739 743 746 750 752 755 757 759 762 764 767 769 770 772 774 776 779 781 783 786 788 790 791 793 795 797 799 800 801 801 803 804 806 808 809 810 812 814 814 814 815 816 817 818 818 818 819 820 821 821 821 820
644 648 651 655 660 664 668 671 673 675 678 680 684 688 691 695 699 702 704 706 708 711 712 714 716 718 720 722 724 726 728 729 731 734 738 742 745 748 751 753 755 758 760 763 765 767 769 772 774 776 778 781 783 785 786 788 790 792 794 796 797 798 799 801 802 804 806 808 809 811 812 812 812 813 814 815 816 816 817 817 818 819 819 819 819
644 648 651 654 658 660 663 666 668 670 673 677 682 685 687 690 694 696 700 703 706 707 708 710 712 714 716 718 720 721 723 725 727 730 734 738 741 745 747 749 751 754 757 760 762 764 766 768 771 774 776 778 780 782 784 785 787 790 792 793 795 797 798 799 801 803 805 806 808 809 810 811 811 812 813 813 813 814 815 816 817 817 818 818 817
641 645 648 650 653 655 658 661 664 668 672 675 678 680 682 685 688 691 695 698 701 703 705 707 708 710 712 714 715 716 719 721 723 727 731 734 738 741 743 745 747 750 753 756 758 760 763 765 768 771 774 776 778 780 781 783 785 788 790 792 794 795 796 798 799 802 804 805 807 808 808 809 809 810 810 811 812 813 814 814 815 816 816 816 816
640 643 645 646 647 649 652 655 659 663 667 670 673 675 678 681 683 685 688 691 694 697 700 702 704 706 707 709 710 713 715 717 720 723 728 731 735 737 739 741 744 747 750 752 754 756 759 762 766 769 772 774 776 778 779 781 783 786 789 791 792 794 795 797 799 800 802 803 805 806 806 807 807 808 808 810 811 812 812 813 814 814 814 814 814
640 642 643 645 646 648 650 653 656 659 663 666 669 671 673 675 677 680 682 684 687 689 691 695 698 699 701 703 705 708 711 714 717 721 724 727 730 733 736 738 741 743 746 748 751 754 757 760 764 767 770 772 774 776 778 780 782 785 788 789 791 793 794 796 797 799 800 802 803 803 804 805 805 806 807 809 810 810 811 811 812 812 812 812 812
638 640 642 644 645 647 650 652 654 656 659 661 663 664 666 668 670 671 674 677 679 681 683 685 688 690 693 696 698 702 706 709 713 717 720 723 726 729 732 735 737 739 742 745 748 752 755 759 762 765 768 770 772 774 776 778 781 784 786 788 790 791 793 795 796 797 799 800 801 802 803 804 804 806 807 808 808 809 809 810 810 810 811 811 810
636 637 638 640 642 644 646 648 650 652 654 655 656 657 660 662 664 664 666 668 670 671 672 674 677 679 683 687 691 695 698 702 706 710 714 718 721 725 728 731 733 736 739 742 746 750 754 757 761 764 766 768 770 772 774 777 780 783 785 787 788 790 792 793 794 796 797 798 799 800 802 802 803 804 805 806 807 808 808 808 809 809 809 809 809
635 635 636 637 639 641 643 645 646 648 651 653 654 656 658 660 661 662 663 663 664 664 665 666 667 670 673 679 685 689 692 695 699 703 708 712 717 721 725 728 731 735 738 741 745 748 752 756 759 762 764 766 769 771 773 776 779 781 783 785 787 789 790 792 793 794 795 797 798 799 800 801 802 803 804 805 806 806 806 807 807 807 807 807 807
635 636 636 637 638 639 641 642 644 646 648 649 651 652 654 655 656 656 656 656 657 659 660 660 660 660 662 668 676 683 688 690 692 695 699 705 712 718 722 726 730 733 735 739 743 747 750 754 758 761 762 764 767 770 773 775 778 780 782 784 786 787 789 790 792 793 794 795 797 798 799 800 801 802 803 804 804 805 805 805 805 806 806 806 806
636 637 637 637 638 639 640 641 642 643 644 645 646 646 647 648 648 647 646 646 646 647 649 652 654 655 658 662 667 674 682 687 689 691 693 697 702 709 714 720 725 730 733 736 740 744 749 752 755 758 760 762 765 768 771 773 776 778 780 782 784 786 787 789 790 791 792 793 795 796 797 799 800 801 802 802 803 803 803 804 804 804 805 805 805
635 636 637 637 638 638 639 640 641 642 642 643 644 644 644 643 643 643 642 642 641 641 642 645 648 652 657 660 660 663 672 682 688 689 690 692 696 701 707 715 722 727 731 734 738 743 746 750 753 755 757 759 762 765 768 771 773 776 778 781 783 784 786 787 788 789 790 792 793 794 796 797 798 799 800 801 801 802 802 802 803 803 804 804 803
634 635 636 637 637 637 638 639 639 640 641 642 643 643 644 644 644 646 646 645 645 645 645 645 646 647 649 653 655 658 664 673 682 687 688 691 694 699 707 715 721 724 727 731 736 741 744 747 750 752 754 757 760 763 766 768 771 773 776 779 781 782 784 785 786 788 789 790 791 793 794 795 796 797 798 799 800 800 800 801 802 802 802 802 802
635 636 637 637 637 638 638 638 639 641 642 643 644 645 647 647 648 649 649 648 648 648 647 646 645 643 642 642 645 651 657 662 670 680 688 692 693 698 706 714 719 722 725 729 734 739 742 744 747 749 752 755 759 762 764 766 768 772 774 777 779 780 782 783 784 786 786 787 789 790 792 793 794 795 796 797 798 798 799 800 800 801 801 800 800
637 638 638 638 639 639 639 640 641 642 643 644 646 647 650 651 651 650 648 647 647 646 644 640 636 636 638 639 640 645 653 657 660 669 683 693 697 700 706 713 717 719 722 726 731 737 740 742 744 746 750 754 757 760 762 764 767 770 773 775 777 778 780 781 783 783 784 785 786 788 790 791 792 793 795 796 796 797 798 799 799 800 799 799 798
640 640 640 640 640 641 641 642 643 643 644 646 647 648 650 651 652 651 649 645 643 643 641 638 631 628 630 635 641 648 654 658 660 664 673 687 699 705 707 711 715 718 720 724 729 733 737 739 742 745 749 752 755 757 759 762 765 769 771 773 775 777 778 779 780 781 782 783 784 786 787 789 790 792 793 794 794 795 796 797 798 798 798 797 796
642 643 643 643 643 643 644 645 645 646 646 646 647 648 649 650 650 649 647 645 642 638 635 636 634 628 619 618 628 644 652 656 661 665 668 679 696 706 708 710 712 716 720 724 727 731 734 737 741 745 748 751 753 755 757 761 764 767 769 771 773 775 776 777 778 779 779 780 782 783 786 788 789 791 792 792 793 794 795 796 797 797 796 795 794
645 645 645 646 646 646 646 647 647 648 648 648 649 649 649 650 649 647 646 646 642 635 631 630 632 633 628 618 619 633 647 655 661 665 669 679 693 702 705 707 710 714 718 723 726 729 733 736 740 744 747 749 751 753 756 760 763 765 767 769 771 772 773 774 776 776 777 778 780 782 785 787 788 790 790 791 791 792 794 795 796 795 795 794 792
647 647 647 648 648 648 648 648 648 648 648 648 649 650 650 651 649 647 645 642 636 633 632 626 620 626 638 637 629 632 645 657 664 669 675 684 694 700 702 705 709 713 718 721 724 728 731 735 739 743 745 747 749 752 755 758 761 763 766 767 769 770 772 773 774 774 775 776 778 781 784 786 787 788 789 789 790 791 793 794 794 794 794 792 790
649 648 649 649 649 649 649 648 647 648 648 648 650 651 652 651 649 646 643 639 636 639 641 633 624 628 642 648 646 645 652 661 668 674 680 687 694 699 703 707 710 713 716 720 723 726 730 734 738 741 743 746 748 751 754 757 759 762 764 766 768 769 771 772 773 773 773 775 777 780 783 785 786 787 787 788 789 790 791 793 793 793 792 790 788
650 649 649 649 650 651 651 650 649 648 649 649 651 654 655 653 649 647 646 643 645 651 653 648 644 646 652 657 660 662 662 665 670 675 681 687 692 698 704 709 712 714 717 719 722 726 729 734 738 741 742 745 747 750 753 755 758 761 763 764 767 768 770 771 772 771 771 773 776 779 782 784 785 786 786 786 788 789 790 791 792 792 791 788 786
652 651 651 651 652 653 654 653 652 651 651 651 652 655 657 656 652 651 652 650 649 652 654 654 656 659 662 666 670 669 667 667 671 676 681 687 693 699 704 708 711 714 716 719 722 726 729 733 737 739 741 744 746 749 752 755 757 759 761 763 765 767 769 770 770 769 769 772 775 778 781 783 784 784 785 785 786 787 788 790 791 790 789 787 784
653 654 654 655 656 656 656 656 656 654 654 654 653 654 657 658 657 656 657 656 654 653 654 657 662 667 671 674 676 673 670 670 674 679 683 688 694 699 704 707 710 712 715 718 721 725 729 733 736 738 740 743 745 748 751 754 756 758 760 762 764 766 767 768 767 767 768 771 774 777 780 781 783 783 783 783 784 786 787 788 789 789 787 785 783
657 657 658 659 659 659 659 659 659 659 658 658 657 656 657 659 661 661 660 660 659 659 659 662 666 670 674 676 677 676 675 676 680 684 688 692 696 700 703 706 709 711 714 717 721 725 728 731 734 737 739 742 744 747 750 752 754 757 759 761 763 764 765 765 765 765 767 771 774 776 779 780 781 781 781 782 783 784 785 787 788 787 786 784 781
662 662 662 662 661 660 661 661 661 662 663 662 660 659 659 660 662 663 664 664 663 663 664 667 669 672 675 677 678 678 680 682 685 688 691 694 697 700 703 706 709 712 715 718 721 725 728 730 733 736 738 741 743 746 748 750 753 755 757 759 761 762 763 763 763 764 767 770 773 775 777 779 779 779 780 780 781 783 784 786 786 786 785 783 780
665 665 666 666 665 663 663 663 663 663 664 664 662 661 661 662 663 664 666 667 668 668 668 670 672 674 677 679 681 682 683 686 688 691 693 696 698 701 703 707 710 713 716 719 722 725 728 730 733 735 738 740 743 745 747 749 751 753 755 757 759 760 760 761 761 763 766 769 772 774 776 777 777 778 778 779 780 782 783 784 784 784 783 781 779
667 668 668 669 669 668 667 666 665 665 666 666 665 665 665 665 666 666 668 669 671 672 673 674 676 678 680 682 683 684 686 688 690 692 695 697 699 702 705 708 711 714 717 719 722 725 728 730 732 735 737 740 742 744 746 748 750 751 753 755 756 757 758 759 760 762 765 768 770 772 774 775 775 776 776 778 779 781 782 783 783 782 781 779 777
670 670 671 671 671 671 670 669 668 668 668 668 669 669 669 669 669 670 671 672 673 675 676 678 680 682 683 684 685 686 688 690 692 694 696 698 701 703 706 709 712 715 717 719 722 725 727 729 732 734 736 738 740 743 745 747 748 750 752 753 754 755 756 757 759 761 764 766 768 770 772 773 774 775 776 777 778 779 780 781 781 781 780 778 776
673 673 674 674 673 673 672 671 670 670 670 671 671 672 673 673 673 674 675 676 676 677 679 680 682 684 685 686 688 689 690 692 693 695 698 700 703 705 708 710 713 715 717 719 722 724 726 729 731 733 735 737 739 741 743 745 747 748 750 752 753 754 755 757 759 761 763 765 767 768 770 771 772 774 775 776 777 778 779 779 779 779 778 776 774
676 676 676 676 676 675 674 673 672 672 673 674 674 674 674 675 676 676 678 679 680 680 681 682 684 685 687 688 690 691 692 694 696 698 700 702 704 707 709 711 713 715 717 719 721 723 726 728 730 731 734 735 737 739 741 743 745 747 749 750 752 753 754 756 758 760 762 763 765 766 768 770 771 772 773 775 776 776 777 777 777 777 776 775 773
679 679 678 678 678 677 676 675 675 675 676 677 677 676 675 676 677 678 679 681 683 683 683 684 685 687 688 690 691 693 695 696 698 700 701 703 705 707 709 711 714 716 717 719 721 723 725 727 728 730 732 734 736 738 740 741 743 745 747 749 751 752 753 755 757 759 760 761 763 764 766 768 769 771 772 773 774 774 775 775 776 775 775 774 772
680 680 680 680 679 679 678 678 677 676 677 677 678 677 677 678 678 679 680 682 684 685 685 685 686 687 689 690 692 694 696 698 699 701 702 704 705 707 709 711 713 715 717 718 720 722 723 725 727 728 730 732 734 736 738 740 741 743 745 748 750 751 752 754 756 757 758 759 760 762 764 766 768 769 770 771 772 772 773 773 774 774 773 772 771
683 683 682 682 681 681 680 679 679 679 679 679 680 681 681 681 680 680 681 682 684 686 686 686 687 688 690 692 694 695 697 698 700 701 702 703 705 706 708 710 711 713 715 717 718 720 722 723 725 726 728 730 732 734 736 738 740 742 745 747 749 750 751 753 754 755 756 757 758 760 762 765 766 768 769 770 770 770 771 772 772 772 772 771 770